Probability
0 0 0 0 0 0 0 0 0 0 0 0 0 0 0 0 0 0 0 0 0 0 3 3 3 3 0 0 0 0 0 0 0 0 0 0 0 0 0 0 0 0 0
0 0 0 0 0 0 0 0 0 0 0 0 0 0 0 0 0 0 0 0 0 0 0 3 3 3 3 0 0 0 0 0 0 0 0 0 0 0 0 0 0 0 0
0 0 0 0 0 0 0 0 0 0 0 0 0 0 0 0 0 0 0 0 0 0 0 3 3 3 3 3 0 0 0 0 0 0 0 0 0 0 0 0 0 0 0
0 0 0 0 0 0 0 0 0 0 0 0 0 0 0 0 0 0 0 0 0 0 0 0 0 3 3 0 0 0 0 0 0 0 0 0 0 0 0 0 0 0 0
0 0 0 0 0 0 0 0 0 0 0 0 0 0 0 0 0 0 0 0 0 0 0 0 0 0 0 0 0 0 0 0 0 0 0 0 0 0 0 0 0 0 0
0 0 0 0 0 0 0 0 0 0 0 0 0 0 0 0 0 0 0 0 0 0 0 0 0 0 0 0 0 0 0 0 0 0 0 0 0 0 0 0 0 0 0
0 0 0 0 0 0 0 0 0 0 0 0 0 0 0 0 0 0 0 0 0 0 0 0 0 0 0 0 0 0 0 0 0 0 0 0 0 0 0 0 0 0 0
0 0 0 0 0 0 0 0 0 0 0 0 0 0 0 0 0 0 0 0 0 0 0 0 0 0 0 0 0 0 0 0 0 0 0 0 0 0 0 0 0 0 0
0 0 0 0 0 0 0 0 0 0 0 0 0 0 0 0 0 0 0 0 0 0 0 0 0 0 0 0 0 0 0 0 0 0 0 0 0 0 0 0 0 0 0
0 0 0 0 0 0 0 0 0 0 0 0 0 0 0 0 0 0 0 0 0 0 0 0 0 0 0 0 0 0 0 0 0 0 0 0 0 0 0 0 0 0 0
0 0 0 0 0 0 0 0 0 0 0 0 0 0 0 0 0 0 0 0 0 0 0 0 0 0 0 0 0 0 0 0 0 0 0 0 0 0 0 0 0 0 0
0 0 0 0 0 0 0 0 0 0 0 0 0 0 0 0 0 0 0 0 0 0 0 0 0 0 0 0 0 0 0 0 0 0 0 0 0 0 0 0 0 0 0
0 0 0 0 0 0 0 0 0 0 0 0 0 0 0 0 0 0 0 0 0 0 0 0 0 0 0 0 0 0 0 0 0 0 0 0 0 0 0 0 0 0 0
0 0 0 0 0 0 0 0 0 0 0 0 0 0 0 0 0 0 0 0 0 0 0 0 0 0 0 0 0 0 0 0 0 0 0 0 0 0 0 0 0 0 0
0 0 0 0 0 0 0 0 0 0 0 0 0 0 0 0 0 0 0 0 0 0 0 0 0 0 0 0 0 0 0 0 0 0 0 0 0 0 0 0 0 0 0
0 0 0 0 0 0 0 0 0 0 0 0 0 0 0 0 0 0 0 0 0 0 0 0 0 0 0 0 0 0 0 0 0 0 0 0 0 0 0 0 0 0 0
0 0 0 0 0 0 0 0 0 0 0 0 0 0 0 0 0 0 0 0 0 0 0 0 0 0 0 0 0 0 0 0 0 0 0 0 0 0 0 0 0 0 0
0 0 0 0 0 0 0 0 0 0 0 0 0 0 0 0 0 0 0 0 0 0 0 0 0 0 0 0 0 0 0 0 0 0 0 0 0 0 0 0 0 0 0
0 0 0 0 0 0 0 0 0 0 0 0 0 0 0 0 0 0 0 0 0 0 0 0 0 0 0 0 0 0 0 0 0 0 0 0 0 0 0 0 0 0 0
0 0 0 0 0 0 0 0 0 0 0 0 0 0 0 0 0 0 0 0 0 0 0 0 0 0 0 0 0 0 0 0 0 0 0 0 0 0 0 0 0 0 0
0 0 0 0 0 0 0 0 0 0 0 0 0 0 0 0 0 0 0 0 0 0 0 0 0 0 0 0 0 0 0 0 0 0 0 0 0 0 0 0 0 0 0
0 0 0 0 0 0 0 0 0 0 0 0 0 0 0 0 0 0 0 0 0 0 0 0 0 0 0 0 0 0 0 0 0 0 0 0 0 0 0 0 0 0 0
0 0 0 0 0 0 0 0 0 0 0 0 0 0 0 0 0 0 0 0 0 0 0 0 0 0 0 0 0 0 0 0 0 0 0 0 0 0 0 0 0 0 0
0 0 0 0 0 0 0 0 0 0 0 0 0 0 0 0 0 0 0 0 0 0 0 0 0 0 0 0 0 0 0 0 0 0 0 0 0 0 0 0 0 0 0
0 0 0 0 0 0 0 0 0 0 0 0 0 0 0 0 0 0 0 0 0 0 0 0 0 0 0 0 0 0 0 0 0 0 0 0 0 0 0 0 0 0 0
0 0 0 0 0 0 0 0 0 0 0 0 0 0 0 0 0 0 0 0 0 0 0 0 0 0 0 0 0 0 0 0 0 0 0 0 0 0 0 0 0 0 0
Height
5831 5833 5833 5834 5835 5835 5835 5834 5834 5833 5832 5831 5829 5828 5826 5824 5822 5820 5817 5815 5812 5809 5806 5803 5800 5797 5794 5791 5787 5784 5780 5776 5772 5768 5764 5760 5756 5752 5748 5744 5740 5736 5732
5825 5826 5827 5828 5829 5829 5829 5829 5828 5828 5827 5826 5824 5823 5821 5819 5816 5814 5811 5809 5806 5803 5800 5797 5794 5791 5788 5784 5781 5777 5773 5769 5765 5761 5756 5752 5748 5743 5739 5735 5731 5726 5722
5818 5819 5821 5822 5823 5823 5823 5823 5822 5822 5821 5820 5818 5817 5815 5813 5810 5808 5805 5802 5800 5797 5794 5791 5787 5784 5781 5777 5774 5770 5766 5762 5757 5753 5748 5744 5739 5734 5730 5725 5721 5716 5712
5811 5812 5813 5815 5816 5816 5816 5816 5816 5815 5814 5813 5812 5810 5808 5806 5804 5801 5799 5796 5793 5790 5787 5784 5781 5777 5774 5770 5766 5762 5758 5754 5749 5744 5740 5735 5730 5725 5720 5716 5711 5706 5701
5802 5804 5806 5807 5808 5809 5809 5809 5809 5808 5808 5807 5805 5804 5802 5800 5797 5794 5792 5789 5786 5783 5780 5777 5774 5770 5766 5763 5759 5755 5750 5745 5741 5736 5731 5725 5721 5716 5711 5705 5700 5695 5690
5794 5796 5798 5799 5800 5801 5801 5801 5801 5801 5800 5799 5798 5797 5795 5793 5791 5788 5785 5783 5780 5777 5773 5770 5767 5763 5759 5755 5751 5747 5742 5737 5732 5726 5721 5716 5711 5706 5700 5695 5690 5685 5679
5786 5788 5790 5791 5792 5793 5793 5793 5793 5793 5792 5792 5791 5790 5788 5786 5784 5781 5779 5776 5773 5770 5766 5763 5759 5756 5752 5747 5743 5738 5733 5728 5722 5717 5712 5706 5701 5696 5690 5685 5679 5674 5668
5778 5779 5781 5783 5784 5784 5785 5785 5785 5785 5784 5784 5783 5782 5781 5780 5777 5774 5772 5769 5766 5762 5759 5755 5751 5747 5743 5739 5734 5729 5724 5718 5713 5707 5702 5696 5691 5685 5679 5674 5668 5662 5656
5769 5770 5772 5774 5775 5776 5776 5777 5777 5777 5776 5776 5775 5774 5772 5771 5770 5767 5764 5761 5758 5754 5751 5747 5743 5738 5734 5729 5724 5719 5714 5708 5703 5697 5691 5686 5680 5674 5668 5662 5657 5651 5644
5759 5761 5763 5765 5766 5767 5768 5768 5768 5768 5768 5767 5767 5765 5764 5762 5761 5759 5757 5753 5749 5746 5742 5738 5733 5729 5724 5719 5714 5709 5704 5698 5693 5687 5681 5675 5669 5663 5657 5651 5645 5639 5633
5750 5752 5754 5755 5757 5758 5759 5759 5759 5759 5759 5759 5758 5757 5756 5754 5752 5750 5748 5745 5741 5737 5732 5728 5724 5719 5714 5709 5704 5699 5694 5688 5682 5676 5670 5664 5658 5652 5646 5639 5633 5627 5621
5741 5742 5744 5746 5747 5749 5749 5750 5750 5750 5750 5750 5749 5748 5747 5745 5744 5741 5739 5736 5732 5728 5723 5718 5713 5709 5704 5699 5694 5689 5684 5678 5672 5666 5660 5654 5647 5641 5635 5628 5622 5616 5610
5731 5733 5735 5737 5738 5739 5740 5741 5741 5741 5741 5741 5740 5739 5738 5736 5735 5732 5730 5727 5723 5719 5714 5708 5704 5699 5695 5690 5684 5679 5673 5667 5661 5655 5649 5643 5637 5630 5624 5617 5611 5605 5599
5721 5723 5725 5727 5728 5730 5731 5731 5732 5732 5732 5732 5731 5730 5729 5727 5725 5723 5721 5718 5714 5710 5705 5700 5695 5690 5685 5680 5675 5669 5664 5658 5651 5645 5639 5632 5626 5619 5613 5606 5600 5595 5589
5712 5713 5715 5717 5718 5720 5721 5722 5722 5723 5723 5723 5722 5721 5720 5718 5716 5714 5711 5708 5705 5701 5698 5692 5687 5681 5676 5671 5666 5660 5654 5648 5642 5635 5628 5622 5615 5609 5603 5596 5590 5585 5579
5701 5703 5705 5707 5708 5710 5711 5712 5713 5713 5713 5713 5712 5711 5710 5709 5706 5704 5702 5698 5695 5691 5688 5683 5678 5673 5668 5662 5657 5651 5645 5639 5632 5625 5618 5612 5605 5599 5593 5586 5581 5575 5570
5691 5693 5695 5697 5699 5700 5701 5702 5703 5703 5703 5703 5702 5702 5701 5699 5697 5695 5692 5689 5685 5682 5678 5675 5669 5664 5659 5654 5648 5642 5636 5629 5623 5616 5609 5602 5596 5589 5583 5577 5571 5565 5560
5681 5683 5685 5687 5688 5690 5691 5692 5692 5693 5693 5693 5693 5692 5691 5689 5687 5685 5682 5679 5676 5672 5669 5666 5661 5656 5651 5645 5640 5634 5627 5620 5614 5607 5600 5593 5586 5580 5573 5567 5561 5556 5551
5671 5673 5675 5677 5678 5679 5681 5681 5682 5683 5683 5683 5682 5682 5681 5680 5678 5676 5673 5670 5667 5664 5660 5656 5652 5647 5642 5636 5631 5625 5618 5611 5604 5597 5590 5584 5577 5570 5564 5558 5553 5548 5543
5660 5662 5664 5666 5668 5669 5670 5671 5672 5672 5673 5673 5672 5672 5671 5670 5668 5666 5664 5661 5658 5655 5651 5647 5643 5638 5633 5628 5622 5616 5610 5603 5596 5588 5581 5574 5568 5562 5556 5551 5546 5540 5535
5649 5651 5653 5655 5657 5658 5659 5660 5661 5662 5663 5663 5662 5662 5661 5660 5659 5657 5655 5652 5649 5646 5643 5639 5634 5629 5624 5619 5614 5607 5600 5594 5587 5580 5573 5566 5560 5555 5549 5543 5538 5533 5527
5637 5640 5642 5644 5646 5647 5648 5649 5651 5652 5652 5652 5652 5652 5651 5650 5649 5647 5645 5643 5640 5637 5634 5630 5625 5620 5615 5610 5604 5598 5591 5585 5579 5573 5566 5560 5554 5548 5542 5537 5531 5526 5520
5626 5628 5630 5632 5634 5636 5638 5639 5640 5641 5641 5642 5642 5642 5641 5640 5639 5637 5635 5633 5630 5627 5624 5620 5616 5611 5606 5601 5595 5590 5583 5576 5570 5564 5559 5554 5547 5541 5535 5530 5524 5519 5513
5615 5617 5619 5621 5623 5626 5627 5629 5630 5631 5631 5632 5632 5632 5631 5630 5629 5628 5626 5623 5621 5618 5615 5611 5607 5602 5597 5591 5586 5580 5574 5570 5564 5557 5552 5547 5541 5535 5529 5523 5517 5512 5507
5604 5606 5608 5610 5612 5614 5616 5618 5619 5620 5621 5621 5621 5621 5621 5620 5619 5617 5616 5614 5612 5609 5605 5602 5597 5593 5588 5583 5577 5573 5568 5563 5558 5552 5545 5540 5535 5530 5524 5518 5511 5505 5499
5593 5595 5598 5600 5602 5604 5605 5607 5609 5610 5610 5611 5611 5611 5611 5610 5608 5607 5606 5604 5602 5600 5597 5593 5589 5584 5580 5575 5570 5565 5560 5556 5551 5546 5539 5534 5528 5523 5519 5513 5506 5499 5493
Wind_Speed
28 27 26 25 25 24 25 25 24 23 23 24 24 24 24 25 27 28 28 29 29 29 30 30 31 31 31 32 32 32 34 34 35 36 37 37 38 38 38 39 39 39 40
31 30 29 28 27 27 27 26 25 25 25 25 25 25 26 28 28 29 30 30 30 30 31 31 31 31 32 33 33 34 35 36 36 37 38 38 39 39 40 40 41 41 42
33 32 31 30 29 29 29 28 28 28 27 27 27 27 29 30 30 30 31 32 31 31 32 32 32 32 33 34 35 35 36 37 37 38 39 40 41 41 41 41 42 43 43
35 33 33 32 32 31 30 31 30 30 29 29 29 29 30 31 31 31 31 31 32 32 33 33 34 34 34 35 36 37 37 38 39 40 41 42 42 42 42 43 43 44 45
37 36 34 34 34 33 32 32 33 32 31 31 31 31 31 31 31 31 32 32 32 33 33 34 34 35 35 36 37 38 39 40 41 42 43 43 43 44 44 44 45 46 46
37 37 37 36 36 36 36 35 34 34 33 33 32 32 32 31 31 32 32 32 33 33 34 34 35 36 37 38 39 40 41 42 43 44 44 44 44 44 44 45 46 46 47
38 38 38 37 37 37 37 37 37 35 34 34 34 33 33 32 32 32 32 33 34 34 35 36 37 38 39 40 41 42 43 44 44 44 44 45 45 46 46 46 47 47 48
40 39 39 39 38 38 38 38 38 38 37 35 35 34 33 33 33 33 34 35 35 35 36 37 38 39 40 41 43 44 44 44 45 45 46 46 46 46 47 47 47 48 49
43 42 41 40 39 38 38 38 39 40 39 37 36 35 35 34 33 34 35 35 36 37 38 39 40 42 43 44 44 44 44 45 46 46 47 47 47 47 48 47 47 48 49
43 42 41 41 40 40 39 39 39 39 39 39 38 37 37 36 36 35 36 37 37 38 40 41 42 44 45 45 45 45 46 47 47 47 47 48 48 48 48 48 49 49 49
43 43 43 42 40 40 40 40 39 39 40 40 39 39 38 37 37 37 37 38 39 40 42 43 44 45 45 45 46 47 47 47 46 46 47 47 48 48 48 48 49 48 47
43 43 43 42 41 41 40 40 39 38 38 38 39 39 39 39 39 39 39 39 40 42 44 44 45 45 44 45 46 46 47 46 46 46 46 47 47 47 48 48 48 46 45
43 43 44 43 43 42 41 40 40 38 37 37 38 38 39 39 39 39 40 40 41 43 43 43 43 43 43 44 44 45 45 46 46 46 46 47 47 47 47 47 46 44 44
43 42 42 43 43 43 42 41 40 39 38 38 37 37 38 39 39 40 40 40 41 41 42 41 42 42 43 44 44 45 45 45 46 46 47 47 47 46 47 46 44 43 43
43 42 42 41 42 42 42 41 41 40 40 39 38 38 38 38 39 40 41 42 41 40 39 40 40 42 43 43 43 44 44 46 46 46 47 47 46 46 46 45 43 41 41
42 42 41 41 42 42 41 41 41 40 40 40 39 39 38 38 39 40 41 42 41 40 39 39 39 40 41 42 43 44 44 45 45 46 46 46 45 45 45 43 42 41 40
44 43 42 42 42 42 42 42 42 41 40 41 41 40 39 38 38 39 40 40 40 40 40 39 38 39 40 41 42 43 44 44 44 45 46 45 44 44 44 44 42 41 40
45 44 43 43 43 43 43 42 42 42 41 41 40 40 39 38 38 39 39 39 39 39 39 38 38 39 40 41 42 43 44 44 45 45 45 44 44 44 43 43 40 38 37
44 44 44 43 42 42 42 41 41 41 41 41 40 39 39 38 39 38 38 38 38 38 39 39 39 40 40 41 42 44 44 45 45 45 45 44 43 42 41 39 37 36 36
45 44 43 43 41 41 41 41 41 40 40 39 38 38 38 38 38 38 38 38 38 38 39 39 40 40 41 42 43 44 43 44 44 44 43 42 40 39 38 36 35 35 35
45 44 43 42 42 42 41 40 40 39 38 38 37 37 37 37 38 38 38 38 38 39 39 40 41 41 41 42 43 43 43 43 43 42 40 39 38 36 36 35 35 34 34
43 43 43 41 40 39 39 39 39 39 39 38 38 37 37 37 37 38 38 38 38 39 40 41 41 42 42 43 43 43 42 41 39 39 37 36 36 35 34 33 33 33 33
42 42 42 42 40 39 38 37 37 37 38 38 38 38 38 38 38 38 38 39 39 40 41 41 42 41 42 44 44 42 40 38 37 36 35 34 34 33 33 33 32 32 32
40 40 41 42 42 41 40 39 38 38 38 38 38 38 38 38 38 39 39 39 40 40 40 41 40 40 41 41 40 39 37 36 36 35 34 33 33 33 33 33 33 32 32
39 39 40 40 40 40 40 40 39 39 39 39 38 38 38 39 39 39 39 38 38 38 39 39 38 39 39 39 37 36 36 36 35 34 34 33 33 33 32 32 32 32 32
39 39 39 39 39 40 40 39 38 38 38 39 38 38 38 38 38 37 37 37 37 37 38 38 38 37 37 37 37 36 35 34 34 33 33 33 33 33 32 32 32 31 31
Wind_Direction
248 249 252 255 259 262 265 269 275 280 284 286 288 290 293 296 298 300 301 302 302 303 303 304 304 303 303 304 304 304 305 306 305 305 305 305 304 303 302 301 300 299 298
248 249 253 256 258 261 265 268 274 277 282 284 287 290 293 295 298 299 300 300 300 301 302 304 304 304 303 303 304 305 305 306 306 306 306 305 305 304 302 301 300 299 298
248 250 251 254 257 261 264 267 272 276 279 282 285 288 292 294 296 298 299 299 300 300 301 302 302 302 302 303 303 304 305 306 306 306 306 306 305 304 302 301 300 300 299
248 250 252 254 256 260 263 266 270 275 277 280 283 287 290 293 296 296 297 298 299 299 301 301 301 301 302 303 304 304 305 306 307 307 306 306 305 303 302 301 301 301 300
249 251 253 255 257 259 262 265 268 272 276 279 283 286 289 292 295 296 297 298 299 299 300 300 301 301 302 303 304 304 305 306 306 306 306 306 304 303 302 302 301 301 300
250 251 254 256 258 260 262 265 268 271 275 279 282 285 288 290 292 295 297 298 299 299 299 300 302 302 303 303 303 303 304 305 305 305 306 305 304 303 303 302 301 301 301
251 253 255 257 258 260 263 266 270 272 275 278 280 283 286 288 290 292 294 297 299 299 299 300 301 302 303 303 303 303 304 304 305 306 306 305 304 303 303 302 301 301 300
252 254 255 256 258 261 263 266 270 272 275 277 279 281 284 285 287 290 293 295 297 298 298 300 301 303 303 303 303 303 303 305 305 305 305 305 304 304 303 303 303 302 301
253 253 255 257 258 261 265 267 270 272 274 276 279 281 283 284 286 290 291 293 295 295 297 299 300 301 302 302 303 304 304 305 305 305 305 304 304 304 304 303 303 303 302
253 254 254 257 259 261 264 267 270 273 274 276 278 281 283 285 286 287 290 291 294 296 296 297 299 301 301 301 302 303 304 305 304 305 304 304 304 304 304 303 303 303 303
253 254 255 257 260 262 264 267 271 273 275 276 277 280 282 284 286 288 289 291 293 295 296 297 298 300 300 301 301 302 304 305 304 305 305 305 304 304 304 304 304 304 303
253 255 256 257 259 262 264 266 269 272 275 275 277 279 282 284 285 288 290 291 293 295 296 297 298 299 301 302 302 303 304 305 305 305 305 305 305 305 304 305 305 304 304
253 255 256 257 259 260 262 266 268 270 273 275 277 279 281 283 285 287 289 291 294 296 297 297 298 300 302 303 303 304 305 305 306 306 307 307 306 305 306 307 306 306 305
254 255 257 259 259 260 262 265 266 269 271 274 276 278 280 282 285 286 289 291 294 296 296 297 298 300 302 303 304 305 306 306 307 308 308 307 307 307 308 309 307 306 306
254 256 257 258 259 260 260 262 265 269 271 273 275 278 280 282 285 287 288 290 293 295 296 297 298 299 301 303 304 305 306 307 308 308 309 308 308 308 309 309 308 308 307
256 256 256 256 258 258 260 263 266 268 270 272 273 276 279 281 284 286 288 290 292 294 296 296 297 300 301 303 304 306 306 308 309 309 309 309 308 308 309 309 308 308 307
256 256 256 256 258 259 260 263 264 266 268 271 272 274 277 281 283 285 288 290 291 293 295 296 298 300 302 304 305 306 306 308 309 309 310 309 309 309 309 309 308 307 307
256 256 256 258 258 259 260 262 263 266 269 271 272 274 277 280 283 285 287 289 291 293 295 296 298 300 302 303 305 307 308 309 310 310 310 309 309 308 308 309 309 308 309
254 255 256 257 258 259 260 262 264 266 268 270 272 274 276 279 282 285 286 288 290 292 294 297 299 300 302 303 305 308 309 309 310 311 311 309 308 309 309 310 310 311 310
254 255 255 255 257 258 260 262 263 265 267 269 270 272 274 278 281 284 286 288 290 292 293 296 299 300 302 304 306 307 308 310 311 311 311 310 310 310 310 309 310 311 310
253 253 254 255 256 258 259 261 261 263 265 267 269 272 273 278 281 283 285 287 290 291 293 295 298 300 302 304 305 307 308 310 311 312 312 311 310 310 309 308 310 311 311
252 253 253 255 257 258 259 260 261 263 263 266 269 272 274 277 280 282 285 287 289 292 294 295 298 300 301 303 305 307 310 311 311 311 312 311 311 310 310 311 312 313 313
251 253 253 255 256 257 259 262 264 264 264 266 269 272 275 277 278 280 283 285 288 291 294 296 298 300 301 302 305 307 310 312 312 313 312 312 312 313 312 312 313 314 314
251 252 254 254 256 258 260 263 264 264 265 267 269 272 274 276 277 280 282 285 287 290 293 296 299 300 301 303 305 308 311 312 312 313 313 313 314 313 313 313 313 314 314
251 252 253 254 256 258 259 261 262 265 266 267 270 272 274 277 279 280 282 284 286 289 293 296 299 301 302 305 306 308 310 311 312 312 313 313 313 314 314 314 314 315 316
251 253 254 255 256 257 258 259 261 263 265 268 270 273 274 276 278 279 281 283 287 289 291 294 298 300 302 304 306 307 309 311 312 312 313 313 314 315 315 316 316 316 316